Location: Pompeys Pillar
(45.9913°N, 107.9528°W)
Time: 19:59:16
(UTC+00:00)

N. Korean satellite - Visible Passes

Search period start: 23 March 2023 00:00
Search period end: 02 April 2023 00:00
Orbit: 394 x 418 km, 97.3° (Epoch: 23 March)

Date Brightness Start Highest point End Pass type
(mag) Time Alt. Az. Time Alt. Az. Time Alt. Az.
23 Mar 8.5 12:13:17 10° NE 12:16:05 29° E 12:18:51 10° SSE visible
25 Mar 8.8 12:08:23 10° NE 12:11:03 24° E 12:13:39 10° SSE visible
27 Mar 9.1 12:03:03 10° NE 12:05:29 21° E 12:07:54 10° SE visible
29 Mar 9.3 11:57:15 10° NE 11:59:25 17° E 12:01:34 10° SE visible
31 Mar 9.5 11:51:04 10° ENE 11:52:51 14° E 11:54:36 10° SE visible
